• Join FlightAware (Why Join?)
  • Login
  • US Flag GB Flag 
17:31 EDT


 

Airport Tracker/Info


-or-


 

Live Flight TrackerFlight Track Log ✈ N789EX ✈ 26-Oct-2013 ✈ KBFI - KBFI

Flight Track Log - Related Links

Times and Time Zones

All times are in EDT time to prevent confusion due to time zone crossing. See the N789EX flight status page for this flight to view local times or setup timezone preferences in your user account.

Time Position Orientation Groundspeed Altitude Reporting Facility
EDT Latitude Longitude Course Direction KTS MPH feet Rate Location/Type
14:04 47.5790 -122.3460 328° Northwest 223 257 2,200  Level FlightAware
14:04 47.6060 -122.3790 321° Northwest 237 273 4,000 3,240 Climbing FlightAware
14:05 47.6260 -122.4330 299° West 250 288 6,000 3,120 Climbing FlightAware
14:05 47.6670 -122.4510 344° North 264 304 7,900 3,000 Climbing FlightAware
14:06 47.7100 -122.4290 19° North 275 316 9,700 2,340 Climbing FlightAware
14:07 47.7940 -122.3740 24° Northeast 330 380 11,900 2,400 Climbing FlightAware
14:08 47.8460 -122.3390 24° Northeast 339 390 13,700 2,820 Climbing FlightAware
14:09 47.9320 -122.2820 24° Northeast 344 396 16,500 2,700 Climbing FlightAware
14:09 47.9900 -122.2440 24° Northeast 352 405 18,200 2,940 Climbing FlightAware
14:10 48.0390 -122.2080 26° Northeast 335 386 20,100 2,880 Climbing FlightAware
14:10 48.0850 -122.1640 33° Northeast 326 375 21,600 2,100 Climbing FlightAware
14:11 48.1180 -122.1060 50° Northeast 332 382 22,600 1,620 Climbing FlightAware
14:12 48.1260 -122.0560 77° East 332 382 23,400 2,160 Climbing FlightAware
14:12 48.1220 -121.9500 93° East 328 377 25,100 2,280 Climbing FlightAware
14:13 48.1180 -121.8750 95° East 327 376 26,200 1,680 Climbing FlightAware
14:13 48.1140 -121.7880 94° East 334 384 27,100 1,380 Climbing FlightAware
14:14 48.1100 -121.7090 94° East 339 390 27,900 1,320 Climbing FlightAware
14:15 48.1060 -121.6150 94° East 344 396 28,800 1,320 Climbing FlightAware
14:15 48.1010 -121.4970 94° East 348 400 29,900 660 Climbing FlightAware
14:16 48.0940 -121.3510 94° East 358 412 30,000 60 Climbing FlightAware
14:17 48.0930 -121.2570 91° East 357 411 30,000 -120 Level FlightAware
14:18 48.0910 -121.1720 92° East 356 410 29,900 -120 Descending FlightAware
14:18 48.0850 -121.0750 95° East 359 413 29,900  Level FlightAware
14:19 48.0810 -121.0200 96° East 361 415 29,900  Level FlightAware
14:19 48.0730 -120.9160 97° East 360 414 29,900 60 Level FlightAware
14:20 48.0650 -120.8150 97° East 370 426 30,000 60 Climbing FlightAware
14:21 48.0580 -120.7300 97° East 371 427 30,000  Level FlightAware
14:22 48.0470 -120.5780 96° East 371 427 30,000  Level FlightAware
14:22 48.0420 -120.4990 95° East 372 428 30,000  Level FlightAware
14:23 48.0370 -120.4130 95° East 371 427 30,000  Level FlightAware
14:23 48.0300 -120.3160 96° East 370 426 30,000  Level FlightAware
14:24 48.0240 -120.2190 95° East 372 428 30,000  Level FlightAware
14:25 48.0190 -120.1200 94° East 372 428 30,000 60 Level FlightAware
14:25 48.0150 -120.0070 93° East 372 428 30,100  Climbing FlightAware
14:26 48.0140 -119.9240 91° East 374 430 30,000 -60 Descending FlightAware
14:27 48.0150 -119.7480 89° East 373 429 30,000  Level FlightAware
14:28 48.0120 -119.6480 93° East 374 430 30,000  Level FlightAware
14:28 48.0040 -119.5640 98° East 374 430 30,000  Level FlightAware
14:29 47.9920 -119.4210 97° East 376 433 30,000  Level FlightAware
14:30 47.9850 -119.3400 97° East 374 430 30,000  Level FlightAware
14:30 47.9790 -119.2700 97° East 374 430 30,000  Level FlightAware
14:31 47.9690 -119.1260 96° East 373 429 30,000  Level FlightAware
14:32 47.9580 -118.9710 96° East 373 429 30,000  Level FlightAware
14:33 47.9540 -118.9010 95° East 373 429 30,000  Level FlightAware
14:33 47.9510 -118.8480 95° East 373 429 30,000  Level FlightAware
14:34 47.9460 -118.7650 95° East 373 429 30,000  Level FlightAware
14:35 47.9380 -118.6320 95° East 373 429 30,000  Level FlightAware
14:35 47.9340 -118.5560 94° East 373 429 30,000  Level FlightAware
14:36 47.9250 -118.3990 95° East 373 429 30,000  Level FlightAware
14:37 47.9220 -118.3470 95° East 373 429 30,000  Level FlightAware
14:37 47.9170 -118.2680 95° East 373 429 30,000  Level FlightAware
14:38 47.9090 -118.1370 95° East 373 429 30,000  Level FlightAware
14:39 47.9050 -118.0590 94° East 373 429 30,000  Level FlightAware
14:40 47.8970 -117.9260 95° East 373 429 30,000  Level FlightAware
14:41 47.8890 -117.7950 95° East 373 429 30,000  Level FlightAware
14:42 47.8810 -117.6620 95° East 373 429 30,000  Level FlightAware
14:43 47.8453 -117.3322 95° East 387 445 30,000 -120 Level Seattle Center
14:44 47.8319 -117.1647 97° East 396 456 29,900 -60 Descending Seattle Center
14:45 47.8206 -116.9942 96° East 406 467 29,900  Level Seattle Center
14:46 47.8061 -116.8250 97° East 408 470 30,000  Climbing Seattle Center
14:47 47.7903 -116.6536 98° East 413 475 30,000  Level Seattle Center
14:48 47.7731 -116.4719 98° East 434 499 30,000  Level Seattle Center
14:49 47.7586 -116.2933 97° East 436 502 30,000  Level Seattle Center
14:50 47.7028 -116.1453 119° Southeast 443 510 30,000 -60 Level Seattle Center
14:51 47.6192 -116.2447 219° Southwest 443 510 29,900  Descending Seattle Center
14:52 47.6547 -116.4228 287° West 451 519 30,000  Climbing Seattle Center
14:53 47.7025 -116.6325 289° West 452 520 30,000 -60 Level Seattle Center
14:54 47.7394 -116.8089 287° West 454 522 29,900 -60 Descending Seattle Center
14:55 47.7747 -116.9856 287° West 455 524 29,900  Level Seattle Center
14:56 47.8050 -117.1633 284° West 454 522 29,900  Level Seattle Center
14:57 47.8208 -117.3461 277° West 452 520 30,000  Climbing Seattle Center
14:58 47.8372 -117.5292 278° West 452 520 29,900 -120 Descending Seattle Center
14:59 47.8525 -117.7133 277° West 452 520 29,800  Descending Seattle Center
15:00 47.8658 -117.9000 276° West 455 524 30,000  Climbing Seattle Center
15:06 47.9150 -119.0900 276° West 470 541 29,900 -60 Descending FlightAware
15:07 47.9280 -119.1970 280° West 469 540 29,900  Level FlightAware
15:07 47.9460 -119.3250 282° West 469 540 29,900  Level FlightAware
15:08 47.9650 -119.5180 278° West 473 544 29,900  Level FlightAware
15:09 47.9820 -119.6820 279° West 468 539 30,000 60 Climbing FlightAware
15:10 47.9940 -119.8050 278° West 488 562 30,000  Level FlightAware
15:10 48.0060 -119.9280 278° West 496 571 30,000  Level FlightAware
15:11 48.0160 -120.0500 277° West 498 573 30,000  Level FlightAware
15:12 48.0250 -120.1810 276° West 497 572 30,000  Level FlightAware
15:12 48.0340 -120.3470 275° West 500 575 30,000 60 Level FlightAware
15:13 48.0400 -120.4590 275° West 501 577 30,100  Climbing FlightAware
15:13 48.0460 -120.5680 275° West 502 578 30,000 -120 Descending FlightAware
15:14 48.0550 -120.7620 274° West 502 578 30,000  Level FlightAware
15:15 48.0600 -120.9540 272° West 503 579 30,000 -120 Level FlightAware
15:16 48.0600 -121.0870 270° West 506 582 29,900  Descending FlightAware
15:17 48.0560 -121.3620 269° West 512 589 30,000 60 Climbing FlightAware
15:18 48.0560 -121.4470 270° West 509 586 30,100 -120 Climbing FlightAware
15:18 48.0700 -121.5760 279° West 505 581 29,900 -240 Descending FlightAware
15:19 48.1070 -121.7850 285° West 501 577 29,800 60 Descending FlightAware
15:20 48.1360 -121.9080 289° West 499 574 30,000 120 Climbing FlightAware
15:20 48.1640 -122.0090 293° West 496 571 30,000 60 Level FlightAware
15:21 48.1870 -122.0830 295° West 494 568 30,100  Climbing FlightAware
15:22 48.2580 -122.2700 300° West 478 550 30,000  Descending FlightAware
15:22 48.3180 -122.3170 332° Northwest 450 518 30,100  Climbing FlightAware
15:23 48.3810 -122.3000 10° North 428 493 30,000 -120 Descending FlightAware
15:24 48.4550 -122.2460 26° Northeast 431 496 30,000  Level FlightAware
15:24 48.5360 -122.1850 26° Northeast 432 497 30,000  Level FlightAware
15:25 48.6360 -122.1080 27° Northeast 434 499 30,000 -120 Level FlightAware
15:26 48.7010 -122.0580 27° Northeast 438 504 29,900  Descending FlightAware
15:26 48.7640 -122.0100 27° Northeast 433 498 30,000 60 Climbing FlightAware
15:27 48.8150 -121.9130 51° Northeast 448 516 30,000  Level FlightAware
15:28 48.7910 -121.8380 116° Southeast 473 544 30,000 60 Level FlightAware
15:28 48.7200 -121.7520 141° Southeast 471 542 30,100  Climbing FlightAware
15:29 48.6650 -121.6740 137° Southeast 473 544 30,000 -300 Descending FlightAware
15:30 48.6050 -121.5850 136° Southeast 472 543 29,800 -120 Descending FlightAware
15:30 48.5460 -121.4970 135° Southeast 470 541 29,900 60 Climbing FlightAware
15:31 48.4880 -121.4080 134° Southeast 468 539 29,900 60 Level FlightAware
15:32 48.4000 -121.2680 133° Southeast 464 534 30,000  Climbing FlightAware
15:32 48.3540 -121.1940 133° Southeast 462 532 29,900 -120 Descending FlightAware
15:33 48.3070 -121.1170 133° Southeast 459 528 29,900  Level FlightAware
15:34 48.2680 -121.0050 118° Southeast 450 518 29,900  Level FlightAware
15:35 48.2190 -120.8260 112° Southeast 451 519 29,900  Level FlightAware
15:35 48.1940 -120.7290 111° Southeast 450 518 29,900  Level FlightAware
15:36 48.1700 -120.6290 110° East 449 517 29,900  Level FlightAware
15:36 48.1450 -120.5230 109° East 450 518 29,900  Level FlightAware
15:37 48.1230 -120.4240 108° East 448 516 29,900  Level FlightAware
15:37 48.1020 -120.3250 108° East 448 516 29,900  Level FlightAware
15:38 48.0780 -120.1980 106° East 449 517 29,900  Level FlightAware
15:39 48.0630 -120.1070 104° East 449 517 29,900  Level FlightAware
15:39 48.0490 -120.0110 102° East 449 517 29,900  Level FlightAware
15:40 48.0260 -119.8160 100° East 448 516 29,900  Level FlightAware
15:41 48.0160 -119.6940 97° East 449 517 30,000 60 Climbing FlightAware
15:41 48.0090 -119.6060 97° East 451 519 30,000  Level FlightAware
15:42 48.0010 -119.5060 97° East 450 518 30,000  Level FlightAware
15:42 47.9930 -119.4030 97° East 451 519 30,000 60 Level FlightAware
15:43 47.9830 -119.2770 97° East 451 519 30,100 60 Climbing FlightAware
15:44 47.9780 -119.2040 96° East 451 519 30,100 -120 Level FlightAware
15:44 47.9680 -119.0940 98° East 449 517 30,000 -120 Descending FlightAware
15:45 47.9580 -118.9700 97° East 450 518 30,000  Level FlightAware
15:46 47.9460 -118.8020 96° East 450 518 30,000  Level FlightAware
15:47 47.9350 -118.6440 96° East 450 518 30,000  Level FlightAware
15:48 47.9260 -118.5180 96° East 450 518 30,000  Level FlightAware
15:48 47.9220 -118.4550 95° East 450 518 30,000  Level FlightAware
15:49 47.9150 -118.3600 96° East 450 518 30,000 -120 Level FlightAware
15:50 47.8975 -118.0903 96° East 455 524 29,800 -120 Descending Seattle Center
15:51 47.8831 -117.8639 95° East 457 526 29,800 60 Level Seattle Center
15:52 47.8689 -117.6706 96° East 467 537 30,000  Climbing Seattle Center
15:53 47.8556 -117.4717 96° East 476 548 29,900 -60 Descending Seattle Center
15:54 47.8433 -117.2719 95° East 479 551 29,900  Level Seattle Center
15:55 47.8297 -117.0678 96° East 486 559 30,000 60 Climbing Seattle Center
15:56 47.8164 -116.8603 95° East 495 570 30,100  Climbing Seattle Center
15:57 47.8031 -116.6575 96° East 492 566 30,000 -60 Descending Seattle Center
15:58 47.8853 -116.5192 48° Northeast 498 573 30,000  Level Seattle Center
15:59 47.9925 -116.6292 326° Northwest 515 593 30,000 -60 Level Seattle Center
16:00 47.9633 -116.8278 258° West 511 588 29,900  Descending Seattle Center
16:01 47.9058 -117.0200 246° West 513 590 30,000  Climbing Seattle Center
16:02 47.8728 -117.2217 256° West 512 589 30,000  Level Seattle Center
16:03 47.8506 -117.4283 261° West 513 590 30,000  Level Seattle Center
16:04 47.8283 -117.6767 262° West 510 587 30,000  Level Seattle Center
16:05 47.8139 -117.8856 264° West 512 589 30,000  Level Seattle Center
16:10 47.9940 -118.9630 264° West 524 603 30,000 -60 Level FlightAware
16:10 48.0000 -119.0170 279° West 525 604 29,900 -120 Descending FlightAware
16:11 48.0120 -119.1970 276° West 527 606 29,900  Level FlightAware
16:12 48.0250 -119.4430 275° West 531 611 30,000 120 Climbing FlightAware
16:13 48.0320 -119.5860 274° West 532 612 30,100 -120 Climbing FlightAware
16:14 48.0400 -119.8060 273° West 532 612 29,900 -180 Descending FlightAware
16:15 48.0450 -119.9280 274° West 533 613 29,900  Level FlightAware
16:15 48.0480 -120.0380 272° West 533 613 29,900 60 Level FlightAware
16:16 48.0610 -120.2620 275° West 533 613 30,000 60 Climbing FlightAware
16:17 48.0670 -120.3640 275° West 533 613 30,000  Level FlightAware
16:18 48.0800 -120.5830 275° West 534 615 30,000 -60 Level FlightAware
16:18 48.0900 -120.7380 276° West 533 613 29,900  Descending FlightAware
16:19 48.1030 -120.9580 275° West 534 615 30,000  Climbing FlightAware
16:20 48.1140 -121.1280 276° West 535 616 30,000  Level FlightAware
16:21 48.1190 -121.2520 274° West 535 616 30,000  Level FlightAware
16:22 48.1270 -121.4740 273° West 535 616 30,000  Level FlightAware
16:22 48.1320 -121.6060 273° West 535 616 30,000  Level FlightAware
16:23 48.1360 -121.7410 273° West 535 616 30,000  Level FlightAware
16:23 48.1260 -121.8470 262° West 538 619 30,000 60 Level FlightAware
16:24 48.0830 -121.9160 227° Southwest 534 615 30,100  Climbing FlightAware
16:24 48.0370 -121.9350 195° South 516 594 30,000 -120 Descending FlightAware
16:25 47.9670 -121.8880 156° South 485 558 30,000  Level FlightAware
16:25 47.9520 -121.7890 103° East 465 535 30,000 60 Level FlightAware
16:26 47.9650 -121.6750 80° East 465 535 30,100 60 Climbing FlightAware
16:26 47.9780 -121.5750 79° East 466 536 30,100  Level FlightAware
16:27 47.9960 -121.4480 78° East 466 536 30,100 -180 Level FlightAware
16:28 48.0220 -121.2740 77° East 467 537 29,900 -120 Descending FlightAware
16:28 48.0410 -121.1640 75° East 467 537 30,000 120 Climbing FlightAware
16:29 48.0720 -120.9940 75° East 468 539 30,100 -60 Climbing FlightAware
16:30 48.0760 -120.8010 88° East 471 542 29,900 -180 Descending FlightAware
16:31 48.0780 -120.7080 88° East 471 542 29,900 60 Level FlightAware
16:31 48.0790 -120.6180 89° East 472 543 30,000 60 Climbing FlightAware
16:32 48.0810 -120.4890 89° East 473 544 30,000 60 Level FlightAware
16:33 48.0830 -120.3860 88° East 473 544 30,100 120 Climbing FlightAware
16:33 48.0870 -120.2150 88° East 472 543 30,200 -120 Climbing FlightAware
16:34 48.0900 -120.1090 88° East 472 543 30,000 -240 Descending FlightAware
16:35 48.0870 -119.9610 92° East 474 545 29,900 60 Descending FlightAware
16:36 48.0800 -119.7900 93° East 473 544 30,100  Climbing FlightAware
16:36 48.0750 -119.6960 95° East 475 547 29,900 -240 Descending FlightAware
16:37 48.0700 -119.5790 94° East 476 548 29,900 60 Level FlightAware
16:38 48.0610 -119.4010 94° East 476 548 30,000  Climbing FlightAware
16:38 48.0520 -119.2430 95° East 474 545 30,000 -60 Level FlightAware
16:39 48.0510 -119.0450 90° East 474 545 29,900 -60 Descending FlightAware
16:40 48.0760 -118.9300 72° East 474 545 29,900  Level FlightAware
16:41 48.0900 -118.8670 72° East 474 545 29,900  Level FlightAware
16:42 48.2240 -119.2620 297° West 517 595 30,000  Climbing FlightAware
16:43 48.1890 -119.3130 224° Southwest 523 602 30,000  Level FlightAware
16:43 48.1140 -119.3650 205° Southwest 516 594 30,000  Level FlightAware
16:44 48.0780 -119.3700 185° South 509 586 30,000  Level FlightAware
16:45 47.9560 -119.2960 158° South 484 557 30,000  Level FlightAware
16:45 47.9230 -119.2520 138° Southeast 480 552 30,000  Level FlightAware
16:46 47.8720 -119.0790 114° Southeast 467 537 30,000  Level FlightAware
16:46 47.8780 -119.0180 82° East 466 536 30,000  Level FlightAware
16:47 47.9100 -118.8720 72° East 466 536 30,000  Level FlightAware
16:48 47.9310 -118.7760 72° East 466 536 30,000  Level FlightAware
16:49 47.9650 -118.6200 72° East 466 536 30,000  Level FlightAware
16:49 47.9860 -118.5240 72° East 466 536 30,000  Level FlightAware
16:50 48.0000 -118.4590 72° East 466 536 30,000  Level FlightAware
16:51 47.8960 -119.0040 254° West 466 536 30,000  Level FlightAware
16:52 47.9210 -118.9110 68° East 466 536 30,000  Level FlightAware
16:53 47.9470 -118.8170 68° East 466 536 30,000  Level FlightAware
16:53 47.9790 -118.6970 68° East 466 536 30,000  Level FlightAware
16:56 47.9000 -119.1920 257° West 483 556 30,000  Level FlightAware
16:56 47.8790 -119.0950 108° East 474 545 30,000 -120 Level FlightAware
16:57 47.8800 -118.9060 89° East 478 550 29,900 240 Descending FlightAware
16:58 47.8810 -118.7600 89° East 475 547 30,500 420 Climbing FlightAware
16:59 47.8830 -118.6060 89° East 473 544 30,600 60 Climbing FlightAware
16:59 47.8840 -118.5070 89° East 473 544 30,600  Level FlightAware
17:00 47.8850 -118.4070 89° East 473 544 30,600  Level FlightAware
17:01 47.8860 -118.3070 89° East 473 544 30,600  Level FlightAware
17:02 47.8880 -118.1400 89° East 473 544 30,600  Level FlightAware
17:02 47.8900 -118.0050 89° East 473 544 30,600  Level FlightAware
17:03 47.8920 -117.8380 89° East 473 544 30,600  Level FlightAware
17:04 47.8930 -117.7720 89° East 473 544 30,600  Level FlightAware
17:05 47.8950 -117.6050 89° East 473 544 30,600  Level FlightAware
17:05 47.8950 -117.5390 90° East 473 544 30,600  Level FlightAware
17:06 47.8960 -117.4390 89° East 473 544 30,600  Level FlightAware
17:06 47.8970 -117.3720 89° East 473 544 30,600  Level FlightAware
17:07 47.8990 -117.2060 89° East 473 544 30,600  Level FlightAware
17:08 47.9000 -117.1000 89° East 473 544 30,600 -240 Level FlightAware
17:09 47.8519 -116.5800 89° East 510 587 30,200  Descending Seattle Center
17:10 47.9953 -116.6569 340° North 538 619 30,600 120 Climbing Seattle Center
17:11 48.0186 -116.8761 279° West 547 629 30,500 -120 Descending Seattle Center
17:12 48.0331 -117.0989 276° West 546 628 30,400  Descending Seattle Center
17:13 48.0450 -117.3239 275° West 549 632 30,500  Climbing Seattle Center
17:14 48.0547 -117.5503 274° West 551 634 30,400 -240 Descending Seattle Center
17:15 48.0592 -117.7789 272° West 552 635 30,100 -180 Descending Seattle Center
17:16 48.0636 -118.0067 272° West 553 636 30,100 -60 Level Seattle Center
17:21 48.0580 -119.2750 272° West 560 644 30,000 -60 Descending FlightAware
17:22 48.0530 -119.3830 266° West 559 643 30,000 60 Level FlightAware
17:23 48.0430 -119.5920 266° West 560 644 30,100  Climbing FlightAware
17:24 48.0490 -119.7850 273° West 560 644 30,100  Level FlightAware
17:24 48.0540 -119.9480 273° West 561 646 30,100  Level FlightAware
17:25 48.0590 -120.1480 272° West 560 644 30,100 60 Level FlightAware
17:26 48.0630 -120.3150 272° West 560 644 30,200 60 Climbing FlightAware
17:27 48.0640 -120.4480 271° West 560 644 30,200  Level FlightAware
17:27 48.0660 -120.6350 271° West 561 646 30,200 60 Level FlightAware
17:28 48.0700 -120.8120 272° West 558 642 30,300 -60 Climbing FlightAware
17:29 48.0790 -121.0430 273° West 558 642 30,100 -180 Descending FlightAware
17:30 48.0920 -121.2570 275° West 558 642 30,000  Descending FlightAware
17:31 48.1040 -121.4110 277° West 555 639 30,100  Climbing FlightAware
17:32 48.1280 -121.6460 279° West 553 636 30,100 120 Level FlightAware
17:32 48.1440 -121.7320 286° West 542 624 30,300 420 Climbing FlightAware
17:33 48.2020 -121.8060 320° Northwest 502 578 30,500 360 Climbing FlightAware
17:33 48.2270 -121.8120 351° North 491 565 30,600 600 Climbing FlightAware
17:33 48.2820 -121.7900 15° North 477 549 30,900 420 Climbing FlightAware
17:34 48.3200 -121.7280 47° Northeast 480 552 31,000 120 Climbing FlightAware
17:34 48.3310 -121.6610 76° East 487 560 31,000  Level FlightAware
17:35 48.3010 -121.5260 108° East 498 573 31,000  Level FlightAware
17:36 48.2580 -121.3750 113° Southeast 493 567 31,000  Level FlightAware
17:36 48.2140 -121.2140 112° Southeast 494 568 31,000  Level FlightAware
17:37 48.1590 -121.0070 112° Southeast 493 567 31,000 -420 Level FlightAware
17:38 48.1170 -120.8470 111° Southeast 495 570 30,200 -720 Descending FlightAware
17:39 48.0910 -120.7230 107° East 508 585 30,000 -240 Descending FlightAware
17:40 48.0630 -120.5650 105° East 510 587 29,900  Descending FlightAware
17:40 48.0390 -120.4300 105° East 512 589 30,000  Climbing FlightAware
17:41 48.0070 -120.2480 105° East 510 587 29,900  Descending FlightAware
17:42 47.9870 -120.1370 105° East 509 586 30,000 60 Climbing FlightAware
17:42 47.9660 -120.0180 105° East 509 586 30,000  Level FlightAware
17:43 47.9450 -119.8920 104° East 510 587 30,000 60 Level FlightAware
17:44 47.9290 -119.7670 101° East 503 579 30,100 60 Climbing FlightAware
17:45 47.9350 -119.5680 87° East 504 580 30,100 120 Level FlightAware
17:45 47.9410 -119.4280 86° East 506 582 30,300 300 Climbing FlightAware
17:46 47.9510 -119.2250 86° East 504 580 30,600  Climbing FlightAware
17:47 47.9600 -119.0440 86° East 500 575 30,400 -300 Descending FlightAware
17:48 47.9490 -118.8800 96° East 503 579 30,100 -240 Descending FlightAware
17:49 47.9410 -118.7750 96° East 503 579 30,100  Level FlightAware
17:49 47.9320 -118.6690 97° East 503 579 30,100  Level FlightAware
17:50 47.9200 -118.5280 97° East 503 579 30,100  Level FlightAware
17:51 47.9090 -118.3880 97° East 503 579 30,100  Level FlightAware
17:52 47.8970 -118.2470 97° East 503 579 30,100  Level FlightAware
17:52 47.8890 -118.1420 96° East 503 579 30,100  Level FlightAware
17:53 47.8740 -117.9630 97° East 503 579 30,100  Level FlightAware
17:54 47.8620 -117.8230 97° East 503 579 30,100  Level FlightAware
17:55 47.8480 -117.6470 97° East 503 579 30,100  Level FlightAware
17:56 47.8360 -117.5070 97° East 503 579 30,100  Level FlightAware
17:57 47.8240 -117.3640 97° East 503 579 30,100  Level FlightAware
17:57 47.8130 -117.2290 97° East 503 579 30,100 -60 Level FlightAware
17:59 47.8411 -116.6961 97° East 524 603 30,000 -60 Descending Seattle Center
18:00 47.9172 -116.8500 306° West 560 644 30,000  Level Seattle Center
18:01 47.8972 -117.0708 262° West 551 634 30,000  Level Seattle Center
18:02 47.8864 -117.2969 266° West 554 638 30,100  Climbing Seattle Center
18:03 47.8744 -117.5236 266° West 557 641 30,100  Level Seattle Center
18:04 47.8631 -117.7503 266° West 555 639 30,200 -60 Climbing Seattle Center
18:09 47.9420 -119.0520 266° West 557 641 30,000 -60 Descending FlightAware
18:10 47.9570 -119.1960 279° West 556 640 30,000  Level FlightAware
18:11 47.9740 -119.3630 279° West 557 641 30,000  Level FlightAware
18:11 47.9890 -119.5030 279° West 556 640 30,000  Level FlightAware
18:12 48.0090 -119.6930 279° West 555 639 30,000  Level FlightAware
18:13 48.0310 -119.8990 279° West 554 638 30,000  Level FlightAware
18:14 48.0400 -120.0950 274° West 555 639 30,000  Level FlightAware
18:15 48.0450 -120.2620 273° West 554 638 30,000  Level FlightAware
18:15 48.0520 -120.4690 273° West 556 640 30,000  Level FlightAware
18:16 48.0580 -120.6840 272° West 554 638 30,000  Level FlightAware
18:17 48.0630 -120.8400 273° West 555 639 30,000  Level FlightAware
18:18 48.0680 -120.9990 273° West 555 639 30,000  Level FlightAware
18:19 48.0740 -121.1720 273° West 553 636 30,000  Level FlightAware
18:19 48.0800 -121.3720 273° West 553 636 30,000  Level FlightAware
18:20 48.0850 -121.5220 273° West 551 634 30,000 -120 Level FlightAware
18:21 48.0910 -121.6800 273° West 534 615 29,900 -780 Descending FlightAware
18:21 48.0950 -121.8120 273° West 504 580 29,000 -1,980 Descending FlightAware
18:22 48.0940 -121.9040 269° West 468 539 27,800 -2,100 Descending FlightAware
18:23 48.0830 -122.0970 265° West 469 540 26,000 -1,560 Descending FlightAware
18:24 48.0720 -122.2530 264° West 451 519 25,000 -2,880 Descending FlightAware
18:25 48.0620 -122.4060 264° West 427 491 21,200 -3,900 Descending FlightAware
18:25 48.0700 -122.5160 276° West 385 443 19,200 -3,180 Descending FlightAware
18:26 48.1020 -122.5690 312° West 366 421 17,500 -2,520 Descending FlightAware
18:27 48.1490 -122.6880 301° West 361 415 15,700 -1,440 Descending FlightAware
18:27 48.1420 -122.7310 256° West 352 405 15,700 -180 Level FlightAware
18:27 48.1130 -122.7770 227° Southwest 344 396 15,600 -1,080 Descending FlightAware
18:28 48.0350 -122.8260 203° Southwest 320 368 14,300 -1,500 Descending FlightAware
18:29 48.0040 -122.8170 169° South 313 360 13,700 -1,680 Descending FlightAware
18:29 47.9730 -122.7900 150° Southeast 312 359 13,000 -1,800 Descending FlightAware
18:30 47.9150 -122.7370 149° Southeast 283 326 11,600 -2,100 Descending FlightAware
18:31 47.8610 -122.6890 149° Southeast 284 327 9,700 -1,620 Descending FlightAware
18:31 47.8350 -122.6650 148° Southeast 279 321 9,700  Level FlightAware
18:31 47.8080 -122.6410 149° Southeast 276 318 9,700  Level FlightAware
18:32 47.7820 -122.6180 149° Southeast 276 318 9,700  Level FlightAware
18:32 47.7460 -122.5860 149° Southeast 277 319 9,700  Level FlightAware
18:33 47.7020 -122.5470 149° Southeast 276 318 9,700  Level FlightAware
18:33 47.6760 -122.5240 149° Southeast 278 320 9,700  Level FlightAware
18:34 47.6550 -122.5040 147° Southeast 280 322 9,700  Level FlightAware
18:34 47.6190 -122.4720 149° Southeast 282 325 9,700  Level FlightAware
18:35 47.6040 -122.4400 125° Southeast 255 293 9,700  Level FlightAware
18:35 47.5980 -122.3900 100° East 245 282 9,700  Level FlightAware
18:36 47.5900 -122.3580 110° East 237 273 9,700  Level FlightAware
18:36 47.5760 -122.3110 114° Southeast 235 270 9,700  Level FlightAware
18:37 47.5630 -122.2700 115° Southeast 238 274 9,700  Level FlightAware
18:37 47.5520 -122.2350 115° Southeast 239 275 9,700 -780 Level FlightAware
18:37 47.5390 -122.2000 119° Southeast 229 264 9,100 -2,220 Descending FlightAware
18:38 47.5220 -122.1660 127° Southeast 232 267 7,800 -3,000 Descending FlightAware
18:38 47.5010 -122.1400 140° Southeast 229 264 6,500 -3,000 Descending FlightAware
18:39 47.4820 -122.1200 145° Southeast 218 251 5,400 -2,760 Descending FlightAware
18:39 47.4610 -122.1010 149° Southeast 212 244 4,300 -2,700 Descending FlightAware
18:39 47.4380 -122.0800 148° Southeast 208 239 3,100 -2,160 Descending FlightAware
18:40 47.4210 -122.0700 158° South 200 230 2,600 -1,440 Descending FlightAware
18:40 47.4040 -122.0890 217° Southwest 186 214 2,000 -900 Descending FlightAware
18:41 47.4020 -122.1240 265° West 180 207 1,800 -240 Descending FlightAware
18:41 47.4000 -122.1510 264° West 180 207 1,800  Level FlightAware
18:42 47.4200 -122.2000 301° West 174 200 1,800  Level FlightAware
18:42 47.4260 -122.2250 290° West 174 200 1,800 -600 Level FlightAware
18:43 47.4570 -122.2410 341° North 145 167 1,200 -900 Descending FlightAware
18:43 47.4620 -122.2450 332° Northwest 145 167 1,100 -600 Descending FlightAware
18:44 47.4870 -122.2670 329° Northwest 148 170 700 -360 Descending FlightAware
18:44 47.5000 -122.2820 322° Northwest 148 170 700 -1,200 Level FlightAware
18:44 47.5040 -122.2800 19° North 144 166 100 -1,320 Descending FlightAware
18:45 47.5160 -122.2910 328° Northwest 144 166 100 27,240 Level FlightAware
18:45 47.5294 -122.3031 328° Northwest 139 160 26,000 48,540 Climbing Seattle Center